Weather History for PABE - October, 2011

Change the Weather History Date:

Tuesday, October 11, 2011

  Actual Average Record
Temperature  
Mean Temperature 30 °F 33 °F  
Max Temperature 37 °F 39 °F 58 °F (1926)
Min Temperature 23 °F 27 °F 13 °F (1961)
Degree Days  
Heating Degree Days 35 32  
Month to date heating degree days 321 324  
Since 1 July heating degree days 1699 1550  
Cooling Degree Days 0    
Month to date cooling degree days 0  
Year to date cooling degree days 0  
Moisture  
Dew Point 25 °F    
Average Humidity 0    
Maximum Humidity 0    
Minimum Humidity 0    
Precipitation  
Precipitation 0.00 in 0.06 in 0.54 in (1998)
Month to date precipitation 0.01 0.70  
Year to date precipitation 11.34 14.87  
Snow  
Snow 0.00 in 0.10 in 0.90 in (1992)
Month to date snowfall T 0.8  
Since 1 July snowfall T 1.4  
Since 1 September snowfall 0.0 1.4  
Snow Depth 0.00 in    
Sea Level Pressure  
Sea Level Pressure 29.97 in    
Wind  
Wind Speed 8 mph (NW)    
Max Wind Speed 15 mph    
Max Gust Speed 18 mph    
Visibility 10 miles    
Events      
T = Trace of Precipitation, MM = Missing Value Source: NWS Daily Summary

Daily Weather History Graph

Daily Weather History Graph

Search for Another Location

Airport or City:

Trip Planner

Search our weather history database for the weather conditions in past years. The results will help you decide how hot, cold, wet, or windy it might be!

Date:

Astronomy

Oct. 11, 2011 Rise Set
Actual Time 9:18 AM AKDT 7:48 PM AKDT
Civil Twilight 8:35 AM AKDT 8:31 PM AKDT
Nautical Twilight 7:46 AM AKDT 9:20 PM AKDT
Astronomical Twilight 6:55 AM AKDT 10:10 PM AKDT
Moon 7:05 PM AKDT (10/11) 9:22 AM AKDT (10/11)
Length of Visible Light 11h 55m
Length of Day
10h 30m
Full, 100% of the Moon is Illuminated
Oct 11
Full
Oct 11
Full
Oct 19
Last Quarter
Oct 26
New
Nov 2
First Quarter

Hourly Weather History & Observations

Time (AKDT) Temp. Windchill Dew Point Humidity Pressure Visibility Wind Dir Wind Speed Gust Speed Precip Events Conditions
12:53 AM 28.9 °F 21.1 °F 28.0 °F 96% 29.83 in 10.0 mi NW 8.1 mph - N/A   Partly Cloudy
1:53 AM 28.0 °F 20.0 °F 27.0 °F 96% 29.84 in 10.0 mi NW 8.1 mph - N/A   Partly Cloudy
2:53 AM 27.0 °F 18.7 °F 25.0 °F 92% 29.84 in 10.0 mi NW 8.1 mph - N/A   Partly Cloudy
3:53 AM 26.1 °F 19.4 °F 24.1 °F 92% 29.85 in 10.0 mi NW 5.8 mph - N/A   Scattered Clouds
4:53 AM 26.1 °F 18.4 °F 24.1 °F 92% 29.87 in 10.0 mi NW 6.9 mph - N/A   Scattered Clouds
5:53 AM 26.1 °F 16.8 °F 24.1 °F 92% 29.88 in 10.0 mi NW 9.2 mph - N/A   Scattered Clouds
6:53 AM 25.0 °F 15.5 °F 24.1 °F 96% 29.90 in 10.0 mi NW 9.2 mph - N/A   Scattered Clouds
7:53 AM 23.0 °F 14.7 °F 21.9 °F 96% 29.92 in 10.0 mi NW 6.9 mph - N/A   Scattered Clouds
8:53 AM 24.1 °F 14.4 °F 21.9 °F 91% 29.94 in 10.0 mi NW 9.2 mph - N/A   Scattered Clouds
9:53 AM 24.1 °F 16.0 °F 23.0 °F 96% 29.95 in 10.0 mi NW 6.9 mph - N/A   Scattered Clouds
10:53 AM 27.0 °F 19.5 °F 25.0 °F 92% 29.96 in 10.0 mi NW 6.9 mph - N/A   Mostly Cloudy
11:53 AM 30.0 °F 23.2 °F 28.0 °F 92% 29.98 in 10.0 mi NNW 6.9 mph - N/A   Overcast
12:53 PM 32.0 °F 25.6 °F 30.0 °F 92% 29.99 in 10.0 mi NW 6.9 mph - N/A   Overcast
2:06 PM 33.8 °F 25.8 °F 30.2 °F 87% 30.00 in 10.0 mi NNW 10.4 mph - N/A   Overcast
2:53 PM 35.1 °F 27.4 °F 30.0 °F 82% 30.01 in 10.0 mi NNW 10.4 mph - N/A   Overcast
3:53 PM 36.0 °F 28.0 °F 28.0 °F 73% 30.01 in 10.0 mi NNW 11.5 mph - N/A   Overcast
4:53 PM 36.0 °F 27.5 °F 27.0 °F 70% 30.01 in 10.0 mi NNW 12.7 mph - N/A   Overcast
5:53 PM 36.0 °F 28.0 °F 23.0 °F 59% 30.02 in 10.0 mi NNW 11.5 mph - N/A   Overcast
6:53 PM 35.1 °F 27.9 °F 25.0 °F 67% 30.04 in 10.0 mi NNW 9.2 mph - N/A   Overcast
7:53 PM 33.1 °F 26.9 °F 24.1 °F 70% 30.05 in 10.0 mi NNW 6.9 mph - N/A   Overcast
8:53 PM 30.9 °F 25.2 °F 21.0 °F 67% 30.06 in 10.0 mi North 5.8 mph - N/A   Mostly Cloudy
9:53 PM 28.9 °F 25.2 °F 21.9 °F 75% 30.07 in 10.0 mi NNW 3.5 mph - N/A   Clear
10:53 PM 28.9 °F - 21.0 °F 72% 30.07 in 10.0 mi Calm Calm - N/A   Clear
11:53 PM 27.0 °F 23.0 °F 21.0 °F 78% 30.08 in 10.0 mi West 3.5 mph - N/A   Scattered Clouds